Regional Weather Roundup
Issued by NWS Green Bay, WI

Home | Current Version | Previous Version | Graphics & Text | Print | Product List | Glossary Off
Versions: 1 2 3 4 5 6 7 8 9 10 11 12 13 14 15 16 17 18 19 20 21 22 23 24 25 26 27 28 29 30 31 32 33 34 35 36 37 38 39 40 41 42 43 44 45 46 47 48 49 50

000
ASUS43 KGRB 211311
RWRGRB

NORTH-CENTRAL AND NORTHEAST WISCONSIN REGIONAL WEATHER ROUNDUP
NATIONAL WEATHER SERVICE GREEN BAY WI
800 AM CDT SAT APR 21 2018

WIZ005-009-010>012-018-019-211400-
NORTH CENTRAL WISCONSIN

CITY           SKY/WX    TMP DP  RH WIND       PRES   REMARKS
IRONWOOD       FAIR      33  20  58 CALM      30.43R
MANITOWISH WTR FAIR      29  20  69 CALM      30.42S
ARBOR VITAE    FAIR      34  21  59 CALM      30.42S
EAGLE RIVER    FAIR      29  21  70 CALM      30.41S
LAND O LAKES   FAIR      31  20  62 CALM      30.43S
RHINELANDER    FAIR      35  19  52 CALM      30.43R
PHILLIPS       FAIR      31  22  69 CALM      30.43R
ANTIGO         FAIR      32  26  76 CALM      30.43S
TOMAHAWK       FAIR      32  19  58 CALM      30.44R
MERRILL          N/A     31  23  73 CALM      30.45R
$$

WIZ013-073-211400-
NORTHEAST WISCONSIN

CITY           SKY/WX    TMP DP  RH WIND       PRES   REMARKS
IRON MOUNTAIN  FAIR      39  20  46 NW3       30.40S
MARINETTE      FAIR      41  18  39 W5        30.44S
OCONTO         FAIR      35  20  54 CALM      30.44S
$$

WIZ017-030-035>037-045-211400-
CENTRAL WISCONSIN

CITY           SKY/WX    TMP DP  RH WIND       PRES   REMARKS
MEDFORD        FAIR      32  25  74 CALM      30.42S
WAUSAU         FAIR      34  26  72 CALM      30.42R
MOSINEE        MOSUNNY   37  21  52 CALM      30.43S
MARSHFIELD     FAIR      37  23  56 CALM      30.42R
WISC RAPIDS    FAIR      35  21  56 CALM      30.45R
STEVENS POINT  FAIR      31  23  73 CALM      30.45R
WAUPACA        FAIR      35  26  70 CALM      30.45S
SHAWANO        FAIR      34  26  72 CALM      30.45R
CLINTONVILLE   FAIR      33  22  63 CALM      30.44S
WAUTOMA        FAIR      33  28  81 CALM      30.46R
$$

WIZ038-039-048-051-211400-
FOX VALLEY

CITY           SKY/WX    TMP DP  RH WIND       PRES   REMARKS
NWS GREEN BAY  FAIR      36  27  69 S3        30.44F
APPLETON       PTSUNNY   37  18  44 CALM      30.44R
OSHKOSH        FAIR      36  23  59 CALM      30.45R
FOND DU LAC    FAIR      36  24  62 S3        30.45S
$$

WIZ022-050-052-211400-
EAST CENTRAL WISCONSIN

CITY           SKY/WX    TMP DP  RH WIND       PRES   REMARKS
EPHRAIM        FAIR      42  19  38 W6        30.42R
WASHINGTON ISL FAIR      38  26  61 SW5       30.43R
STURGEON BAY   FAIR      43  23  45 SW5       30.45R
MANITOWOC      FAIR      36  27  69 CALM      30.47R
SHEBOYGAN      FAIR      35  31  85 SW3       30.46R
$$

LMZ563-521-522-541>543-211400-
LAKESHORE

STATION/POSITION TIME  TEMP    WIND        PRES    VSBY  WAVE
                       AIR SEA DIR/SP/G                  HT/PER
                 (UTC) (F)     (DEG/KT/KT) (MB)    (MI)  (FT/S)
SHEBOYGAN LKSHOR 1300   39     230/  4/  5 1032.0R
KEWAUNEE LKSHORE 1242   35     190/  2/  4 1030.4R
NORTHPORT PIER   1240   40                 1030.5R
SISTER BAY LKSHO 1212   44        CALM       N/A
MENOMINEE LKSHOR 1242   38     190/  4/  5 1030.1R
$$




USA.gov is the U.S. government's official web portal to all federal, state and local government web resources and services.